When you browse on this site, cookies collect data to enhance your experience and personalize the content and advertising you see.
Visit our Privacy Policy to learn more. By continuing to use the site, you agree to this use of cookies and data.
  • In Sweden
  • List of Countries
  • For 7 days
  • Water Temperature
  • Satellite Maps
  • Weather Map
  • Weather Widgets
  • user-avatar
    Login

    Hourly Weather Santiago del Estero

    Today, 19 July, Friday

    Time Temperature Precipitation Wind Pressure Humidity
    00:00 +17°C° 0 mm 3 mps 748 mmHg 60%
    01:00 +17°C° 0 mm 3 mps 747 mmHg 63%
    02:00 +16°C° 0 mm 3 mps 747 mmHg 66%
    03:00 +14°C° 0 mm 3 mps 747 mmHg 66%
    04:00 +14°C° 0 mm 2 mps 746 mmHg 66%
    05:00 +13°C° 0 mm 2 mps 746 mmHg 66%
    06:00 +13°C° 0 mm 2 mps 746 mmHg 64%
    07:00 +13°C° 0 mm 1 mps 746 mmHg 62%
    08:00 +13°C° 0 mm 1 mps 746 mmHg 60%
    09:00 +15°C° 0 mm 2 mps 746 mmHg 57%
    10:00 +17°C° 0 mm 2 mps 745 mmHg 54%
    11:00 +19°C° 0 mm 3 mps 745 mmHg 51%
    12:00 +20°C° 0 mm 3 mps 744 mmHg 51%
    13:00 +21°C° 0 mm 3 mps 743 mmHg 52%
    14:00 +22°C° 0 mm 3 mps 741 mmHg 53%
    15:00 +22°C° 0 mm 3 mps 741 mmHg 54%
    16:00 +24°C° 0 mm 3 mps 741 mmHg 55%
    17:00 +24°C° 0 mm 3 mps 740 mmHg 57%
    18:00 +22°C° 0 mm 3 mps 740 mmHg 63%
    19:00 +21°C° 0 mm 2 mps 740 mmHg 69%
    20:00 +20°C° 0 mm 2 mps 740 mmHg 76%
    21:00 +20°C° 0 mm 3 mps 740 mmHg 76%
    22:00 +20°C° 0 mm 3 mps 740 mmHg 77%
    23:00 +20°C° 0 mm 4 mps 739 mmHg 78%

    Tomorrow, 20 July, Saturday

    Time Temperature Precipitation Wind Pressure Humidity
    00:00 +19°C° 0 mm 4 mps 739 mmHg 82%
    01:00 +18°C° 0 mm 3 mps 738 mmHg 85%
    02:00 +18°C° 0 mm 3 mps 738 mmHg 89%
    03:00 +17°C° 0 mm 2 mps 737 mmHg 90%
    04:00 +17°C° 0 mm 2 mps 737 mmHg 92%
    05:00 +17°C° 0 mm 2 mps 737 mmHg 93%
    06:00 +17°C° 0 mm 2 mps 737 mmHg 93%
    07:00 +17°C° 0 mm 2 mps 737 mmHg 92%
    08:00 +18°C° 0 mm 3 mps 738 mmHg 92%
    09:00 +19°C° 0 mm 4 mps 738 mmHg 84%
    10:00 +21°C° 0 mm 5 mps 737 mmHg 77%
    11:00 +23°C° 0 mm 6 mps 737 mmHg 69%
    12:00 +24°C° 0 mm 6 mps 736 mmHg 66%
    13:00 +26°C° 0 mm 5 mps 735 mmHg 63%
    14:00 +27°C° 0 mm 5 mps 734 mmHg 60%
    15:00 +28°C° 0 mm 5 mps 734 mmHg 57%
    16:00 +28°C° 0 mm 4 mps 734 mmHg 54%
    17:00 +29°C° 0 mm 4 mps 733 mmHg 51%
    18:00 +28°C° 0 mm 4 mps 733 mmHg 55%
    19:00 +26°C° 0 mm 3 mps 733 mmHg 60%
    20:00 +25°C° 0 mm 3 mps 733 mmHg 65%
    21:00 +24°C° 0 mm 3 mps 733 mmHg 67%
    22:00 +24°C° 0 mm 3 mps 733 mmHg 68%
    23:00 +22°C° 0 mm 4 mps 733 mmHg 70%

    Day after tomorrow, 21 July, Sunday

    Time Temperature Precipitation Wind Pressure Humidity
    00:00 +21°C° 0 mm 3 mps 732 mmHg 74%
    01:00 +21°C° 0 mm 2 mps 732 mmHg 77%
    02:00 +20°C° 0 mm 2 mps 731 mmHg 80%
    03:00 +20°C° 0 mm 2 mps 731 mmHg 80%
    04:00 +20°C° 0 mm 3 mps 730 mmHg 80%
    05:00 +20°C° 0 mm 3 mps 730 mmHg 79%
    06:00 +20°C° 0 mm 3 mps 731 mmHg 78%
    07:00 +20°C° 0 mm 3 mps 731 mmHg 77%
    08:00 +21°C° 0 mm 3 mps 731 mmHg 76%
    09:00 +24°C° 0 mm 3 mps 732 mmHg 67%
    10:00 +26°C° 0 mm 3 mps 732 mmHg 59%
    11:00 +28°C° 0 mm 3 mps 732 mmHg 50%
    12:00 +29°C° 0 mm 3 mps 732 mmHg 46%
    13:00 +30°C° 0 mm 2 mps 731 mmHg 42%
    14:00 +31°C° 0 mm 2 mps 731 mmHg 39%
    15:00 +31°C° 0 mm 2 mps 731 mmHg 40%
    16:00 +30°C° 0 mm 2 mps 732 mmHg 41%
    17:00 +30°C° 0 mm 3 mps 732 mmHg 43%
    18:00 +28°C° 0 mm 5 mps 733 mmHg 47%
    19:00 +26°C° 0 mm 6 mps 734 mmHg 52%
    20:00 +24°C° 0 mm 8 mps 734 mmHg 56%
    21:00 +21°C° 0 mm 9 mps 736 mmHg 53%
    22:00 +18°C° 0 mm 9 mps 737 mmHg 49%
    23:00 +16°C° 0 mm 9 mps 738 mmHg 46%

    22 July, Monday

    Time Temperature Precipitation Wind Pressure Humidity
    00:00 +15°C° 0 mm 9 mps 739 mmHg 43%
    01:00 +14°C° 0 mm 10 mps 740 mmHg 40%
    02:00 +13°C° 0 mm 11 mps 741 mmHg 37%
    03:00 +13°C° 0 mm 10 mps 741 mmHg 35%
    04:00 +12°C° 0 mm 9 mps 742 mmHg 33%
    05:00 +12°C° 0 mm 8 mps 743 mmHg 32%
    06:00 +12°C° 0 mm 8 mps 744 mmHg 29%
    07:00 +12°C° 0 mm 8 mps 746 mmHg 26%
    08:00 +12°C° 0 mm 8 mps 747 mmHg 23%
    09:00 +12°C° 0 mm 8 mps 747 mmHg 23%
    10:00 +14°C° 0 mm 7 mps 748 mmHg 24%
    11:00 +14°C° 0 mm 7 mps 748 mmHg 25%
    12:00 +14°C° 0 mm 7 mps 748 mmHg 24%
    13:00 +15°C° 0 mm 7 mps 747 mmHg 23%
    14:00 +15°C° 0 mm 6 mps 747 mmHg 23%
    15:00 +15°C° 0 mm 6 mps 747 mmHg 23%
    16:00 +14°C° 0 mm 6 mps 747 mmHg 24%
    17:00 +14°C° 0 mm 5 mps 747 mmHg 24%
    18:00 +13°C° 0 mm 4 mps 748 mmHg 27%
    19:00 +11°C° 0 mm 3 mps 748 mmHg 29%
    20:00 +10°C° 0 mm 2 mps 749 mmHg 31%
    21:00 +10°C° 0 mm 2 mps 749 mmHg 32%
    22:00 +9°C° 0 mm 2 mps 749 mmHg 33%
    23:00 +9°C° 0 mm 2 mps 749 mmHg 34%

    23 July, Tuesday

    Time Temperature Precipitation Wind Pressure Humidity
    00:00 +8°C° 0 mm 2 mps 749 mmHg 34%
    01:00 +8°C° 0 mm 2 mps 749 mmHg 35%
    02:00 +8°C° 0 mm 2 mps 749 mmHg 36%
    03:00 +7°C° 0 mm 2 mps 749 mmHg 37%
    04:00 +7°C° 0 mm 3 mps 749 mmHg 37%
    05:00 +7°C° 0 mm 3 mps 749 mmHg 38%
    06:00 +8°C° 0 mm 3 mps 750 mmHg 38%
    07:00 +8°C° 0 mm 3 mps 750 mmHg 38%
    08:00 +7°C° 0 mm 4 mps 751 mmHg 38%
    09:00 +8°C° 0 mm 4 mps 751 mmHg 35%
    10:00 +11°C° 0 mm 4 mps 752 mmHg 31%
    11:00 +12°C° 0 mm 4 mps 752 mmHg 27%
    12:00 +13°C° 0 mm 5 mps 751 mmHg 25%
    13:00 +14°C° 0 mm 5 mps 751 mmHg 22%
    14:00 +15°C° 0 mm 6 mps 750 mmHg 20%
    15:00 +15°C° 0 mm 5 mps 750 mmHg 21%
    16:00 +14°C° 0 mm 4 mps 751 mmHg 21%
    17:00 +14°C° 0 mm 4 mps 751 mmHg 22%
    18:00 +12°C° 0 mm 3 mps 751 mmHg 25%
    19:00 +11°C° 0 mm 3 mps 752 mmHg 27%
    20:00 +9°C° 0 mm 2 mps 752 mmHg 29%
    21:00 +8°C° 0 mm 2 mps 753 mmHg 29%
    22:00 +8°C° 0 mm 2 mps 753 mmHg 30%
    23:00 +8°C° 0 mm 1 mps 754 mmHg 30%

    24 July, Wednesday

    Time Temperature Precipitation Wind Pressure Humidity
    00:00 +8°C° 0 mm 1 mps 753 mmHg 32%
    01:00 +7°C° 0 mm 1 mps 753 mmHg 33%
    02:00 +6°C° 0 mm 1 mps 753 mmHg 34%
    03:00 +6°C° 0 mm 1 mps 753 mmHg 36%
    04:00 +5°C° 0 mm 1 mps 753 mmHg 37%
    05:00 +5°C° 0 mm 1 mps 753 mmHg 39%
    06:00 +6°C° 0 mm 1 mps 753 mmHg 38%
    07:00 +7°C° 0 mm 1 mps 754 mmHg 38%
    08:00 +8°C° 0 mm 1 mps 754 mmHg 38%
    09:00 +10°C° 0 mm 1 mps 755 mmHg 34%
    10:00 +12°C° 0 mm 1 mps 755 mmHg 29%
    11:00 +14°C° 0 mm 2 mps 755 mmHg 25%
    12:00 +15°C° 0 mm 2 mps 755 mmHg 24%
    13:00 +16°C° 0 mm 2 mps 754 mmHg 23%
    14:00 +17°C° 0 mm 3 mps 754 mmHg 21%
    15:00 +16°C° 0 mm 3 mps 754 mmHg 22%
    16:00 +16°C° 0 mm 3 mps 754 mmHg 23%
    17:00 +16°C° 0 mm 3 mps 754 mmHg 24%
    18:00 +13°C° 0 mm 3 mps 754 mmHg 27%
    19:00 +11°C° 0 mm 3 mps 755 mmHg 30%
    20:00 +9°C° 0 mm 3 mps 755 mmHg 32%
    21:00 +9°C° 0 mm 2 mps 756 mmHg 35%
    22:00 +8°C° 0 mm 2 mps 756 mmHg 37%
    23:00 +7°C° 0 mm 2 mps 757 mmHg 39%
    Show more